Truth Or Consequences, NM

1:19 PM MDT on May 22, 2017 (GMT -0600)
Truth Or Consequences Municipal

Weather History for KTCS - October, 2013

Change the Weather History Date:

Wednesday, October 23, 2013

  Actual Average Record
Temperature  
Mean Temperature 58 °F -  
Max Temperature 73 °F 72 °F 84 °F (2003)
Min Temperature 42 °F 45 °F 28 °F (1996)
Degree Days  
Heating Degree Days 8    
Month to date heating degree days  
Since 1 July heating degree days  
Cooling Degree Days 0    
Month to date cooling degree days  
Year to date cooling degree days  
Growing Degree Days 8 (Base 50)    
Moisture  
Dew Point 28 °F    
Average Humidity 33    
Maximum Humidity 51    
Minimum Humidity 11    
Precipitation  
Precipitation 0.00 in - 0.47 in (2000)
Month to date precipitation  
Year to date precipitation  
Sea Level Pressure  
Sea Level Pressure 30.03 in    
Wind  
Wind Speed 7 mph (WNW)    
Max Wind Speed 12 mph    
Max Gust Speed -    
Visibility 10 miles    
Events      
T = Trace of Precipitation, MM = Missing Value Source: NWS Daily Summary

Daily Weather History Graph

Daily Weather History Graph

Search for Another Location

Airport or City:

Trip Planner

Search our weather history database for the weather conditions in past years. The results will help you decide how hot, cold, wet, or windy it might be!

Date:

Astronomy

Oct. 23, 2013 Rise Set
Actual Time 7:20 AM MDT 6:26 PM MDT
Civil Twilight 6:54 AM MDT 6:51 PM MDT
Nautical Twilight 6:25 AM MDT 7:20 PM MDT
Astronomical Twilight 5:57 AM MDT 7:49 PM MDT
Moon 10:07 PM MDT (10/23) 11:31 AM MDT (10/23)
Length of Visible Light 11h 56m
Length of Day
11h 05m
Waning Gibbous, 79% of the Moon is Illuminated
Oct 23
Waning Gibbous
Oct 26
Last Quarter
Nov 3
New
Nov 9
First Quarter
Nov 17
Full

Hourly Weather History & Observations

Time (MDT) Temp. Windchill Dew Point Humidity Pressure Visibility Wind Dir Wind Speed Gust Speed Precip Events Conditions
12:53 AM 46.0 °F 43.1 °F 27.0 °F 47% 30.07 in 10.0 mi WNW 5.8 mph - N/A   Clear
1:53 AM 48.0 °F - 27.0 °F 44% 30.05 in 10.0 mi WNW 8.1 mph - N/A   Clear
2:53 AM 48.0 °F - 27.0 °F 44% 30.04 in 10.0 mi WNW 8.1 mph - N/A   Clear
3:53 AM 46.0 °F 41.9 °F 27.0 °F 47% 30.04 in 10.0 mi WNW 8.1 mph - N/A   Clear
4:53 AM 44.1 °F 38.1 °F 27.0 °F 51% 30.05 in 10.0 mi West 11.5 mph - N/A   Clear
5:53 AM 46.0 °F 41.4 °F 27.0 °F 47% 30.06 in 10.0 mi WNW 9.2 mph - N/A   Clear
6:53 AM 44.1 °F 39.5 °F 27.0 °F 51% 30.09 in 10.0 mi NW 8.1 mph - N/A   Clear
7:53 AM 45.0 °F 41.2 °F 27.0 °F 49% 30.10 in 10.0 mi NNW 6.9 mph - N/A   Clear
8:53 AM 52.0 °F - 28.0 °F 40% 30.11 in 10.0 mi North 4.6 mph - N/A   Clear
9:53 AM 55.9 °F - 30.0 °F 37% 30.11 in 10.0 mi NE 4.6 mph - N/A   Clear
10:53 AM 60.1 °F - 30.0 °F 32% 30.09 in 10.0 mi East 3.5 mph - N/A   Clear
11:53 AM 64.9 °F - 28.9 °F 26% 30.08 in 10.0 mi NE 3.5 mph - N/A   Clear
12:53 PM 68.0 °F - 30.0 °F 24% 30.05 in 10.0 mi Variable 3.5 mph - N/A   Clear
1:53 PM 70.0 °F - 28.0 °F 21% 30.00 in 10.0 mi South 8.1 mph - N/A   Clear
2:53 PM 72.0 °F - 28.0 °F 20% 29.97 in 10.0 mi South 6.9 mph - N/A   Clear
3:53 PM 73.0 °F - 26.1 °F 17% 29.96 in 10.0 mi South 4.6 mph - N/A   Clear
4:53 PM 72.0 °F - 26.1 °F 18% 29.96 in 10.0 mi SSW 6.9 mph - N/A   Clear
5:53 PM 71.1 °F - 28.0 °F 20% 29.96 in 10.0 mi South 6.9 mph - N/A   Clear
6:53 PM 66.9 °F - 30.9 °F 26% 29.98 in 10.0 mi Calm Calm - N/A   Clear
7:53 PM 64.0 °F - 30.0 °F 28% 30.00 in 10.0 mi ESE 3.5 mph - N/A   Clear
8:53 PM 62.1 °F - 30.0 °F 30% 29.99 in 10.0 mi SE 4.6 mph - N/A   Clear
9:53 PM 54.0 °F - 28.9 °F 38% 30.01 in 10.0 mi WNW 5.8 mph - N/A   Clear
10:53 PM 54.0 °F - 30.0 °F 40% 30.01 in 10.0 mi NW 4.6 mph - N/A   Clear
11:53 PM 55.9 °F - 30.0 °F 37% 30.00 in 10.0 mi NW 5.8 mph - N/A   Clear